Погода в Красном

Украина / Львовская область     49°55′03″N   24°37′10″E
темп.,
°C
ветер,
м/с
пор.,
м/с
влажн.,
%
обл.,
%
осадки,
мм/ч
давл.,
гПа
погр.,
м
8 августа, пн
пн800:00+17ссв0162100 0.0 102217
03:00+16св3458100 0.0 1022150
06:00+15св2466100 0.0 1022138
09:00+17всв2370100 0.0 1022253
12:00+20всв3468100 0.1 10221029
15:00+22всв3356100 0.1 10221322
18:00+22всв4557100 0.1 10221116
21:00+19всв3570100 0.1 1022133
9 августа, вт
вт900:00+18св2570100 0.0 1023167
03:00+17св2578100 0.1 1023159
06:00+15св3689100 0.6 1023189
09:00+15св2694100 1.1 1024248
12:00+16св4789100 0.2 1024408
15:00+16св3791100 0.4 1024360
18:00+17вюв2484100 0.0 1024248
21:00+15св2288100 0.0 102433
10 августа, ср
ср1000:00+15ссв1185100 0.0 102411
03:00+14сз228798 0.0 102425
06:00+13с228620 0.0 102323
09:00+16ссв2374100 0.0 1024202
12:00+19ссв355798 0.0 1024604
15:00+24св553826 0.0 10222202
18:00+22св364497 0.0 1022396
21:00+19всв3654100 0.0 1022136
11 августа, чт
чт1100:00+14св337856 0.1 102326
03:00+14ссв228728 0.2 102229
06:00+13ссв2290100 0.0 102222
09:00+16ссв257699 0.0 1023233
12:00+23всв574394 0.0 10221428
15:00+25всв6732100 0.0 10212776
18:00+20всв3652100 0.0 1021223
21:00+16ссз117564 0.0 102118
12 августа, пт
пт1200:00+16св247449 0.1 102198
03:00+14св229487 1.2 102024
06:00+14св349620 0.8 102086
09:00+18всв3587100 1.0 1020327
12:00+22всв4571100 1.3 1020807
15:00+24всв456289 1.3 1019928
18:00+25всв685846 0.0 1018982
21:00+21юв226888 0.0 101820